Regional Weather Roundup
Issued by NWS

Home | Current Version | Previous Version | Text Only | Print | Product List | Glossary On
Versions: 1 2 3 4 5 6 7 8 9 10 11 12 13 14 15 16 17 18 19 20 21 22 23 24 25 26 27 28 29 30 31 32 33 34 35 36 37 38 39 40 41 42 43 44 45 46 47 48 49 50
914
ASUS46 KSTO 270804
RWRCA

NORTHERN AND CENTRAL CA REGIONAL WEATHER ROUNDUP
NATIONAL WEATHER SERVICE SACRAMENTO CA
1200 AM PST MON FEB 27 2017

NOTE: FAIR INDICATES FEW OR NO CLOUDS BELOW 12,000 FEET WITH NO
SIGNIFICANT WEATHER AND/OR OBSTRUCTIONS TO VISIBILITY.

CAZ001-003-270900-
NORTHWEST AREA

CITY           SKY/WX    TMP DP  RH WIND       PRES   REMARKS
CRESCENT CITY  LGT RAIN  41  38  89 SE12      29.89S
UKIAH          CLEAR     37  36  96 NW3       29.91R
$$

CAZ006-505>513-270900-
BAY AREA

CITY           SKY/WX    TMP DP  RH WIND       PRES   REMARKS
SANTA ROSA     LGT RAIN  41  40  96 CALM      29.91R
SAN RAFAEL     N/A       45  MM  MM MISG
NAPA           PTCLDY    45  40  82 W5        29.92S
CONCORD        LGT RAIN  47  44  90 S7        29.93R
OAKLAND CITY   N/A      MM  MM  MM MISG
OAKLAND        CLOUDY    50  45  83 W9        29.93S
SAN FRAN CITY  N/A       45  MM  84 MISG
SAN FRAN ARPT  LGT RAIN  47  40  76 W14       29.93S
LIVERMORE      CLOUDY    45  39  79 CALM      29.92S
HAYWARD        CLOUDY    47  40  76 SE5       29.93S
REDWOOD CITY   N/A       MM  MM  MM MISG
MOFFETT ARPT   CLOUDY    47  41  80 NW3       29.95S
SAN JOSE ARPT  LGT RAIN  48  43  82 N5        29.94S
$$
CAZ034-037-514>518-270900-
CENTRAL COAST

CITY           SKY/WX    TMP DP  RH WIND       PRES   REMARKS
WATSONVILLE    MOCLDY    43  41  93 NW6       29.94S
SALINAS        MOCLDY    46  39  76 CALM      29.94R
MONTEREY       MOCLDY    47  42  83 SE3       29.95R
SAN LUIS OBISP CLOUDY    50  45  83 CALM      29.94S
SANTA MARIA    CLOUDY    48  45  89 CALM      29.94S
$$
CAZ015-016-270900-
NORTHERN SACRAMENTO VALLEY

CITY           SKY/WX    TMP DP  RH WIND       PRES   REMARKS
REDDING        CLEAR     38  28  67 CALM      29.83R
RED BLUFF      PTCLDY    42  27  55 N8        29.86R
OROVILLE       CLOUDY    46  37  71 SE12      29.87S
$$
CAZ016>018-270900-
SOUTHERN SACRAMENTO VALLEY

CITY           SKY/WX    TMP DP  RH WIND       PRES   REMARKS
AUBURN         CLOUDY    39  37  93 S5        29.87S
BEALE AFB      CLOUDY    43  39  86 SE10      29.86R
LINCOLN        PTSUNNY   43  36  75 S7        29.87S
MARYSVILLE     MOCLDY    44  37  76 S9        29.88S
SAC INTL ARPT  MOCLDY    44  37  76 CALM      29.89R
MATHER AIRPORT NOT AVBL
DOWNTOWN SAC   N/A       46  MM  MM MISG
SAC EXEC ARPT  MOCLDY    46  41  82 SW10      29.90S
VACAVILLE      MOCLDY    46  39  76 SW16      29.91S
TRAVIS AFB     PTCLDY    44  40  87 W12       29.89S
$$
CAZ019>021-270900-
SAN JOAQUIN VALLEY

CITY           SKY/WX    TMP DP  RH WIND       PRES   REMARKS
STOCKTON       CLOUDY    47  41  80 W12       29.91R
MODESTO        CLOUDY    50  39  66 CALM      29.92R
MERCED         CLOUDY    48  40  73 NW5       29.91S
LEMOORE        CLOUDY    47  41  80 S7        29.91S
FRESNO         CLOUDY    48  40  73 CALM      29.92R
HANFORD        MOCLDY    43  41  93 SE5       29.92R
PORTERVILLE    PTCLDY    47  43  86 E7        29.93S
BAKERSFIELD    CLOUDY    50  43  77 N7        29.91S
$$
CAZ011-012-071-270900-
NORTHERN MOUNTAINS

CITY           SKY/WX    TMP DP  RH WIND       PRES   REMARKS
YREKA          PTCLDY    28  24  85 CALM      29.78S
MOUNT SHASTA   PTCLDY    21  17  84 CALM      29.74R
ALTURAS        PTCLDY    18  14  84 CALM      29.70S FOG
$$
CAZ011-012-071-270900-
SIERRA NEVADA MTNS

CITY           SKY/WX    TMP DP  RH WIND       PRES   REMARKS
BLUE CANYON    CLOUDY    25  25 100 S14G23    29.75R WCI  13
TRUCKEE        LGT SNOW  25  18  74 SW21G29   29.69R WCI  10
TAHOE VLY ARPT LGT SNOW  26  17  68 S12G30    29.66R WCI  16
MAMMOTH LAKES  FAIR      30   7  37 S18G37    29.64F WCI  18
$$




USA.gov is the U.S. government's official web portal to all federal, state and local government web resources and services.